Location: Litvinovka
(48.6667°N, 34.3500°E)
Time: 03:48:22
(UTC+00:00)

Ariane Rocket - Pass Details

Date: 18 September 2020
Orbit: 761 x 769 km, 98.7° (Epoch: 22 October)

Event Time Altitude Azimuth Distance (km) Brightness Sun altitude
Exits shadow 16:29:33 - 137° (SE) 2,930 5.5 -7.6°
Reaches altitude 10° 16:31:14 10° 131° (SE) 2,296 4.9 -7.8°
Maximum altitude 16:35:52 37° 65° (ENE) 1,176 3.6 -8.6°
Drops below altitude 10° 16:40:31 10° 359° (N) 2,316 5.7 -9.3°
Sets 16:42:58 0° 352° (N) 3,248 6.6 -9.7°
